Centerville, IA

4:46 PM CST on December 10, 2016 (GMT -0600)
Centerville Municipal

Weather History for KTVK - May, 2013

Change the Weather History Date:

Friday, May 10, 2013

  Actual Average Record
Temperature  
Mean Temperature 54 °F -  
Max Temperature 59 °F 71 °F 91 °F (2011)
Min Temperature 48 °F 48 °F 30 °F (1966)
Degree Days  
Heating Degree Days 10    
Growing Degree Days 4 (Base 50)    
Moisture  
Dew Point 52 °F    
Average Humidity 94    
Maximum Humidity 100    
Minimum Humidity 77    
Precipitation  
Precipitation 0.00 in - - ()
Sea Level Pressure  
Sea Level Pressure 29.99 in    
Wind  
Wind Speed 11 mph (NNW)    
Max Wind Speed 16 mph    
Max Gust Speed 22 mph    
Visibility 9 miles    
Events Rain    
Averages and records for this station are not official NWS values.
T = Trace of Precipitation, MM = Missing Value Source: NWS Daily Summary

Daily Weather History Graph

Daily Weather History Graph

Search for Another Location

Airport or City:

Trip Planner

Search our weather history database for the weather conditions in past years. The results will help you decide how hot, cold, wet, or windy it might be!

Date:

Astronomy

May. 10, 2013 Rise Set
Actual Time 5:59 AM CDT 8:17 PM CDT
Civil Twilight 5:28 AM CDT 8:47 PM CDT
Nautical Twilight 4:51 AM CDT 9:25 PM CDT
Astronomical Twilight 4:09 AM CDT 10:07 PM CDT
Moon 6:23 AM CDT 9:07 PM CDT
Length of Visible Light 15h 19m
Length of Day
14h 17m
New Moon, 0% of the Moon is Illuminated
May 10
New Moon
May 17
First Quarter
May 24
Full
May 31
Last Quarter
Jun 8
New

Hourly Weather History & Observations

Time (CDT) Temp. Dew Point Humidity Pressure Visibility Wind Dir Wind Speed Gust Speed Precip Events Conditions
12:15 AM 57.2 °F 57.2 °F 100% 29.91 in 10.0 mi NNW 11.5 mph - N/A   Overcast
12:55 AM 57.2 °F 57.2 °F 100% 29.91 in 10.0 mi NNW 10.4 mph - N/A   Overcast
1:15 AM 57.2 °F 57.2 °F 100% 29.91 in 10.0 mi NW 8.1 mph - N/A   Overcast
1:35 AM 57.2 °F 57.2 °F 100% 29.92 in 10.0 mi NW 10.4 mph - N/A   Overcast
1:55 AM 55.4 °F 55.4 °F 100% 29.92 in 10.0 mi NW 8.1 mph - N/A   Overcast
2:15 AM 55.4 °F 55.4 °F 100% 29.91 in 10.0 mi NW 10.4 mph - N/A   Overcast
2:35 AM 55.4 °F 55.4 °F 100% 29.91 in 10.0 mi NW 9.2 mph - N/A   Overcast
2:55 AM 55.4 °F 55.4 °F 100% 29.91 in 10.0 mi NW 10.4 mph - N/A   Overcast
3:15 AM 55.4 °F 55.4 °F 100% 29.91 in 10.0 mi NW 11.5 mph - N/A   Overcast
3:35 AM 53.6 °F 53.6 °F 100% 29.92 in 10.0 mi NNW 9.2 mph - N/A   Overcast
3:55 AM 53.6 °F 53.6 °F 100% 29.93 in 9.0 mi NW 15.0 mph 18.4 mph N/A   Overcast
4:15 AM 53.6 °F 53.6 °F 100% 29.93 in 9.0 mi NW 13.8 mph - N/A   Overcast
4:35 AM 53.6 °F 53.6 °F 100% 29.93 in 10.0 mi NW 16.1 mph 20.7 mph N/A   Overcast
4:55 AM 53.6 °F 53.6 °F 100% 29.93 in 10.0 mi NNW 16.1 mph 21.9 mph N/A   Overcast
5:15 AM 53.6 °F 53.6 °F 100% 29.93 in 10.0 mi NNW 16.1 mph - N/A   Overcast
5:35 AM 53.6 °F 53.6 °F 100% 29.93 in 10.0 mi NNW 16.1 mph 19.6 mph N/A   Overcast
5:55 AM 51.8 °F 51.8 °F 100% 29.94 in 10.0 mi NNW 15.0 mph 19.6 mph N/A   Overcast
6:15 AM 51.8 °F 51.8 °F 100% 29.95 in 8.0 mi NNW 11.5 mph 17.3 mph N/A   Overcast
6:35 AM 51.8 °F 51.8 °F 100% 29.96 in 6.0 mi NNW 10.4 mph - N/A   Overcast
7:15 AM 51.8 °F 51.8 °F 100% 29.96 in 6.0 mi NNW 12.7 mph 17.3 mph N/A   Overcast
7:35 AM 51.8 °F 51.8 °F 100% 29.97 in 2.5 mi NNW 11.5 mph 20.7 mph N/A   Overcast
8:15 AM 50.0 °F 50.0 °F 100% 29.98 in 3.0 mi NNW 12.7 mph - N/A   Overcast
8:35 AM 50.0 °F 50.0 °F 100% 29.99 in 1.2 mi NNW 9.2 mph - N/A Rain Light Rain
8:55 AM 50.0 °F 50.0 °F 100% 29.99 in 1.8 mi North 12.7 mph 16.1 mph N/A Rain Light Rain
9:15 AM 50.0 °F 50.0 °F 100% 30.00 in 2.5 mi NNW 10.4 mph - N/A   Overcast
9:35 AM 50.0 °F 50.0 °F 100% 29.99 in 4.0 mi NNW 15.0 mph - N/A   Overcast
10:15 AM 50.0 °F 50.0 °F 100% 30.00 in 10.0 mi North 16.1 mph - N/A   Overcast
10:35 AM 50.0 °F 50.0 °F 100% 30.00 in 10.0 mi North 15.0 mph - N/A   Overcast
10:55 AM 50.0 °F 50.0 °F 100% 30.01 in 10.0 mi NNW 12.7 mph 17.3 mph N/A   Overcast
11:15 AM 50.0 °F 50.0 °F 100% 30.02 in 10.0 mi North 12.7 mph - N/A   Overcast
11:35 AM 51.8 °F 51.8 °F 100% 30.02 in 10.0 mi North 11.5 mph - N/A   Overcast
12:15 PM 51.8 °F 50.0 °F 94% 30.03 in 10.0 mi NNW 13.8 mph - N/A   Overcast
12:35 PM 51.8 °F 50.0 °F 94% 30.02 in 10.0 mi North 15.0 mph - N/A   Mostly Cloudy
12:55 PM 51.8 °F 50.0 °F 94% 30.03 in 10.0 mi North 10.4 mph - N/A   Overcast
1:15 PM 51.8 °F 50.0 °F 94% 30.04 in 10.0 mi NNW 11.5 mph - N/A   Overcast
1:35 PM 53.6 °F 50.0 °F 88% 30.03 in 10.0 mi NW 10.4 mph - N/A   Overcast
1:55 PM 53.6 °F 50.0 °F 88% 30.03 in 10.0 mi NW 13.8 mph - N/A   Mostly Cloudy
2:15 PM 53.6 °F 50.0 °F 88% 30.03 in 10.0 mi NNW 13.8 mph - N/A   Overcast
2:35 PM 53.6 °F 50.0 °F 88% 30.03 in 10.0 mi NNW 10.4 mph - N/A   Overcast
2:55 PM 53.6 °F 50.0 °F 88% 30.03 in 10.0 mi NNW 11.5 mph - N/A   Overcast
3:15 PM 55.4 °F 50.0 °F 82% 30.03 in 10.0 mi NNW 11.5 mph - N/A   Mostly Cloudy
3:35 PM 55.4 °F 50.0 °F 82% 30.02 in 10.0 mi North 13.8 mph - N/A   Mostly Cloudy
3:55 PM 55.4 °F 50.0 °F 82% 30.02 in 10.0 mi NNW 11.5 mph - N/A   Partly Cloudy
4:15 PM 57.2 °F 50.0 °F 77% 30.02 in 10.0 mi North 9.2 mph - N/A   Scattered Clouds
4:35 PM 57.2 °F 51.8 °F 82% 30.02 in 10.0 mi NNW 10.4 mph - N/A   Mostly Cloudy
5:15 PM 59.0 °F 51.8 °F 77% 30.01 in 10.0 mi North 12.7 mph - N/A   Partly Cloudy
5:35 PM 59.0 °F 51.8 °F 77% 30.01 in 10.0 mi North 12.7 mph - N/A   Clear
5:55 PM 59.0 °F 51.8 °F 77% 30.01 in 10.0 mi North 10.4 mph - N/A   Clear
6:15 PM 59.0 °F 51.8 °F 77% 30.00 in 10.0 mi NNE 8.1 mph - N/A   Clear
6:35 PM 59.0 °F 53.6 °F 82% 30.00 in 10.0 mi NNE 5.8 mph - N/A   Clear
6:55 PM 59.0 °F 51.8 °F 77% 30.00 in 10.0 mi NNE 6.9 mph - N/A   Clear
7:15 PM 59.0 °F 51.8 °F 77% 30.01 in 10.0 mi ENE 5.8 mph - N/A   Clear
7:35 PM 59.0 °F 51.8 °F 77% 30.01 in 10.0 mi NE 3.5 mph - N/A   Clear
7:55 PM 57.2 °F 51.8 °F 82% 30.01 in 10.0 mi Calm Calm - N/A   Clear
8:15 PM 57.2 °F 51.8 °F 82% 30.01 in 10.0 mi ESE 3.5 mph - N/A   Clear
8:35 PM 55.4 °F 51.8 °F 88% 30.01 in 10.0 mi SSE 3.5 mph - N/A   Clear
8:55 PM 53.6 °F 51.8 °F 94% 30.01 in 10.0 mi South 3.5 mph - N/A   Clear
9:15 PM 53.6 °F 51.8 °F 94% 30.02 in 10.0 mi South 3.5 mph - N/A   Clear
9:35 PM 53.6 °F 51.8 °F 94% 30.03 in 10.0 mi South 3.5 mph - N/A   Clear
9:55 PM 51.8 °F 51.8 °F 100% 30.03 in 10.0 mi SSW 3.5 mph - N/A   Clear
10:15 PM 50.0 °F 50.0 °F 100% 30.03 in 10.0 mi South 5.8 mph - N/A   Clear
10:35 PM 50.0 °F 50.0 °F 100% 30.03 in 10.0 mi SSW 4.6 mph - N/A   Clear
10:55 PM 50.0 °F 50.0 °F 100% 30.03 in 10.0 mi SSW 6.9 mph - N/A   Clear
11:15 PM 50.0 °F 50.0 °F 100% 30.03 in 10.0 mi SW 5.8 mph - N/A   Clear
11:35 PM 50.0 °F 50.0 °F 100% 30.03 in 10.0 mi SSW 5.8 mph - N/A   Clear
11:55 PM 48.2 °F 48.2 °F 100% 30.03 in 10.0 mi SW 6.9 mph - N/A   Clear